Location: Varese
(45.8000°N, 8.8330°E)
Time: 02:14:19
(UTC+02:00)

ISS - Pass Details

Date: 19 May 2021
Orbit: 417 x 422 km, 51.6° (Epoch: 14 June)

Event Time Altitude Azimuth Distance (km) Brightness Sun altitude
Rises 22:04:30 0° 258° (WSW) 2,357 0.6 -10.6°
Reaches altitude 10° 22:06:39 10° 265° (W) 1,496 -0.4 -10.9°
Maximum altitude 22:09:54 47° 340° (NNW) 568 -2.6 -11.3°
Drops below altitude 10° 22:13:11 10° 56° (ENE) 1,504 -1.1 -11.7°
Sets 22:15:20 0° 63° (ENE) 2,371 -0.1 -11.9°
